GW3710 Weather Reports


time (UTC)temp
C
wind
direction
speed
KPH
gust
KPH
rain 1hr
cm
rain 24hr
cm
rain mn
cm
humidity
%
barometer
mb
20260503200154 20 226 6.4 12.9 0.00 0.00 0.00 38 1002.5
20260503195651 19 298 8.0 12.9 0.00 0.00 0.00 37 1002.4
20260503195147 18 215 4.8 6.4 0.00 0.00 0.00 41 1002.5
20260503194644 20 216 6.4 12.9 0.00 0.00 0.00 40 1002.5
20260503194139 19 223 6.4 6.4 0.00 0.00 0.00 39 1002.4
20260503193636 20 224 14.5 17.7 0.00 0.00 0.00 38 1002.8
20260503193132 20 235 9.7 14.5 0.00 0.00 0.00 42 1002.9
20260503192622 20 226 8.0 12.9 0.00 0.00 0.00 40 1003.1
20260503192118 20 216 4.8 6.4 0.00 0.00 0.00 38 1003.0
20260503191615 20 203 6.4 12.9 0.00 0.00 0.00 39 1003.1
20260503191112 19 225 11.3 33.8 0.00 0.00 0.00 41 1003.1
20260503190609 19 164 14.5 20.9 0.00 0.00 0.00 40 1003.1
20260503190106 19 209 4.8 9.7 0.00 0.00 0.00 40 1003.3
20260503185603 18 206 4.8 11.3 0.00 0.00 0.00 43 1003.4
20260503185103 19 224 6.4 9.7 0.00 0.00 0.00 42 1003.1
20260503184558 18 209 6.4 14.5 0.00 0.00 0.00 43 1003.2
20260503184055 19 178 6.4 11.3 0.00 0.00 0.00 44 1003.2
20260503183552 18 232 6.4 11.3 0.00 0.00 0.00 40 1003.4
20260503183049 18 216 6.4 14.5 0.00 0.00 0.00 41 1003.4
20260503182547 18 233 11.3 12.9 0.00 0.00 0.00 40 1003.7
20260503182045 18 226 6.4 14.5 0.00 0.00 0.00 41 1003.6
20260503181542 18 229 9.7 11.3 0.00 0.00 0.00 42 1003.6
20260503181038 18 210 4.8 12.9 0.00 0.00 0.00 40 1003.6
20260503180535 18 173 17.7 24.1 0.00 0.00 0.00 42 1003.7
20260503180033 18 252 4.8 9.7 0.00 0.00 0.00 42 1003.9
20260503175530 18 180 3.2 9.7 0.00 0.00 0.00 42 1003.9
20260503175027 18 208 8.0 14.5 0.00 0.00 0.00 41 1004.1
20260503174524 18 230 6.4 12.9 0.00 0.00 0.00 43 1004.1
20260503174020 18 196 9.7 14.5 0.00 0.00 0.00 43 1004.1
20260503173515 18 162 4.8 12.9 0.00 0.00 0.00 42 1003.9
20260503173011 18 258 11.3 16.1 0.00 0.00 0.00 42 1004.1
20260503172509 17 208 4.8 9.7 0.00 0.00 0.00 43 1004.2
20260503172001 18 165 6.4 9.7 0.00 0.00 0.00 43 1004.3
20260503171457 17 222 8.0 16.1 0.00 0.00 0.00 44 1004.5
20260503170955 17 222 4.8 9.7 0.00 0.00 0.00 43 1004.6
20260503170450 17 227 4.8 4.8 0.00 0.00 0.00 43 1004.6
20260503150837 14 225 8.0 16.1 0.00 0.00 0.00 54 1005.7
20260503150333 15 233 9.7 17.7 0.00 0.00 0.00 54 1005.5
20260503140257 12 209 3.2 6.4 0.00 0.00 0.00 58 1006.5
20260503131227 12 221 6.4 9.7 0.00 0.00 0.00 54 1007.1
20260503130725 12 230 6.4 11.3 0.00 0.00 0.00 54 1007.1
20260503130222 11 239 6.4 6.4 0.00 0.00 0.00 55 1007.0
20260503120148 10 198 1.6 6.4 0.00 0.00 0.00 55 1007.0
20260503110615 9 195 3.2 9.7 0.00 0.00 0.00 55 1007.0
20260503110113 8 201 1.6 12.9 0.00 0.00 0.00 55 1007.1
20260503090444 10 193 3.2 4.8 0.00 0.00 0.00 53 1008.1
20260503081405 10 222 6.4 6.4 0.00 0.00 0.00 52 1008.5
20260503080902 10 208 4.8 6.4 0.00 0.00 0.00 52 1008.7
20260503080358 10 220 3.2 6.4 0.00 0.00 0.00 52 1008.8
20260503072835 10 215 6.4 9.7 0.00 0.00 0.00 50 1008.7
20260503072332 10 224 4.8 6.4 0.00 0.00 0.00 50 1008.7
20260503071828 10 221 4.8 6.4 0.00 0.00 0.00 50 1008.8
20260503071326 10 194 0.0 9.7 0.00 0.00 0.00 50 1008.7
20260503070821 10 227 3.2 6.4 0.00 0.00 0.00 50 1008.7
20260503070320 10 229 6.4 9.7 0.00 0.00 0.00 49 1009.0
20260503060238 10 184 1.6 3.2 0.00 0.00 0.00 50 1009.6
20260503054726 10 199 0.0 1.6 0.00 0.00 0.00 51 1009.9
20260503054223 10 219 3.2 4.8 0.00 0.00 0.00 51 1009.7
20260503053721 10 210 3.2 4.8 0.00 0.00 0.00 51 1009.7
20260503053219 10 199 3.2 4.8 0.00 0.00 0.00 51 1009.7
20260503052715 10 176 4.8 6.4 0.00 0.00 0.00 52 1009.9
20260503052212 10 202 3.2 4.8 0.00 0.00 0.00 51 1010.0
20260503051707 10 185 8.0 11.3 0.00 0.00 0.00 51 1009.8
20260503051205 10 209 1.6 6.4 0.00 0.00 0.00 52 1010.2
20260503050701 10 206 3.2 4.8 0.00 0.00 0.00 53 1010.2
20260503050158 10 212 1.6 3.2 0.00 0.00 0.00 54 1010.4
20260503045655 9 181 0.0 3.2 0.00 0.00 0.00 54 1010.3
20260503045152 10 184 1.6 3.2 0.00 0.00 0.00 53 1010.3
20260503044648 9 171 0.0 3.2 0.00 0.00 0.00 54 1010.4
20260503044141 10 183 1.6 3.2 0.00 0.00 0.00 54 1010.4
20260503043637 10 205 3.2 4.8 0.00 0.00 0.00 53 1010.3
20260503043134 10 170 0.0 1.6 0.00 0.00 0.00 54 1010.4
20260503042631 10 194 1.6 6.4 0.00 0.00 0.00 54 1010.5
20260503042127 10 184 1.6 4.8 0.00 0.00 0.00 54 1010.3
20260503041623 10 198 1.6 3.2 0.00 0.00 0.00 53 1010.5
20260503041120 10 189 1.6 9.7 0.00 0.00 0.00 52 1010.5
20260503040613 10 197 0.0 1.6 0.00 0.00 0.00 53 1010.3
20260503040110 10 168 3.2 3.2 0.00 0.00 0.00 53 1010.5
20260503035606 9 214 4.8 4.8 0.00 0.00 0.00 52 1010.3
20260503035104 9 178 1.6 4.8 0.00 0.00 0.00 53 1010.4
20260503034601 8 162 3.2 4.8 0.00 0.00 0.00 54 1010.6
20260503034058 7 152 0.0 1.6 0.00 0.00 0.00 58 1010.5
20260503033555 7 166 0.0 0.0 0.00 0.00 0.00 61 1010.7
20260503033053 7 166 0.0 0.0 0.00 0.00 0.00 61 1010.8
20260503032551 8 166 0.0 3.2 0.00 0.00 0.00 59 1010.9
20260503032049 8 162 1.6 1.6 0.00 0.00 0.00 58 1010.7
20260503031546 8 165 1.6 1.6 0.00 0.00 0.00 56 1010.9
20260503031044 6 183 1.6 3.2 0.00 0.00 0.00 59 1011.1
20260503030539 5 170 0.0 1.6 0.00 0.00 0.00 65 1011.0
20260503030037 6 170 0.0 0.0 0.00 0.00 0.00 66 1011.3
20260503025533 6 170 0.0 0.0 0.00 0.00 0.00 62 1011.2
20260503025032 6 170 0.0 0.0 0.00 0.00 0.00 63 1011.2
20260503024527 6 170 0.0 0.0 0.00 0.00 0.00 63 1011.4
20260503024024 6 170 0.0 0.0 0.00 0.00 0.00 60 1011.3
20260503023520 6 170 0.0 0.0 0.00 0.00 0.00 59 1011.3
20260503023018 7 170 0.0 1.6 0.00 0.00 0.00 57 1011.3
20260503022514 7 170 1.6 1.6 0.00 0.00 0.00 56 1011.3
20260503022009 7 170 0.0 1.6 0.00 0.00 0.00 59 1011.6
20260503021506 7 170 1.6 1.6 0.00 0.00 0.00 53 1011.4
20260503021003 7 169 0.0 0.0 0.00 0.00 0.00 54 1011.6
20260503020500 8 169 0.0 0.0 0.00 0.00 0.00 54 1011.5
20260503015956 8 169 1.6 3.2 0.00 0.00 0.00 51 1011.6
20260503015453 7 170 1.6 1.6 0.00 0.00 0.00 54 1011.5
20260503014950 7 170 0.0 0.0 0.00 0.00 0.00 54 1011.4
20260503014446 8 170 0.0 1.6 0.00 0.00 0.00 52 1011.4
20260503013945 8 170 0.0 1.6 0.00 0.00 0.00 51 1011.4
20260503013441 8 169 0.0 1.6 0.00 0.00 0.00 49 1011.4
20260503012938 9 171 1.6 3.2 0.00 0.00 0.00 48 1011.5
20260503012432 10 171 1.6 3.2 0.00 0.00 0.00 46 1011.5
20260503011927 10 183 1.6 1.6 0.00 0.00 0.00 45 1011.4
20260503011424 10 184 0.0 1.6 0.00 0.00 0.00 45 1011.5
20260503010921 11 184 0.0 1.6 0.00 0.00 0.00 44 1011.5
20260503010418 11 193 0.0 1.6 0.00 0.00 0.00 43 1011.6
20260503005915 11 181 0.0 3.2 0.00 0.00 0.00 41 1011.7
20260503005412 12 207 3.2 3.2 0.00 0.00 0.00 40 1011.7
20260503004908 12 204 1.6 3.2 0.00 0.00 0.00 38 1011.6
20260503004405 12 206 1.6 4.8 0.00 0.00 0.00 38 1011.5
20260503003903 12 213 3.2 3.2 0.00 0.00 0.00 37 1011.6
20260503003359 12 208 1.6 3.2 0.00 0.00 0.00 38 1011.5
20260503002856 13 213 1.6 6.4 0.00 0.00 0.00 36 1011.7
20260503002354 13 220 4.8 4.8 0.00 0.00 0.00 35 1011.6
20260503001850 13 202 1.6 4.8 0.00 0.00 0.00 36 1011.6
20260503001346 13 249 3.2 6.4 0.00 0.00 0.00 36 1011.6
20260503000844 13 216 3.2 6.4 0.00 0.00 0.00 35 1011.6
20260503000336 14 213 3.2 6.4 0.00 0.00 0.00 33 1011.8
20260502235832 14 191 3.2 6.4 0.00 0.00 0.00 34 1011.6
20260502235324 14 213 1.6 6.4 0.00 0.00 0.00 33 1011.5
20260502234820 14 166 3.2 9.7 0.00 0.00 0.00 32 1011.5
20260502234317 15 187 3.2 3.2 0.00 0.00 0.00 31 1011.8
20260502233814 15 207 3.2 16.1 0.00 0.00 0.00 32 1011.7
20260502233305 14 231 4.8 4.8 0.00 0.00 0.00 31 1011.6
20260502232802 14 295 3.2 9.7 0.00 0.00 0.00 31 1011.8
20260502232258 15 195 3.2 9.7 0.00 0.00 0.00 30 1011.7
20260502231754 15 321 6.4 9.7 0.00 0.00 0.00 30 1011.8
20260502231252 15 253 14.5 16.1 0.00 0.00 0.00 30 1011.7
20260502230751 15 230 3.2 9.7 0.00 0.00 0.00 32 1011.9
20260502230249 15 264 4.8 9.7 0.00 0.00 0.00 31 1011.9
20260502225745 14 211 3.2 11.3 0.00 0.00 0.00 32 1011.7
20260502225242 15 230 4.8 4.8 0.00 0.00 0.00 31 1012.1
20260502224738 14 199 3.2 6.4 0.00 0.00 0.00 33 1012.1
20260502224235 14 266 3.2 6.4 0.00 0.00 0.00 32 1012.1
20260502223732 14 222 6.4 11.3 0.00 0.00 0.00 31 1012.2
20260502223230 14 230 4.8 11.3 0.00 0.00 0.00 31 1012.2
20260502222727 15 248 8.0 11.3 0.00 0.00 0.00 30 1011.9
20260502222223 14 266 6.4 9.7 0.00 0.00 0.00 31 1012.2
20260502221719 15 316 9.7 22.5 0.00 0.00 0.00 30 1012.1
20260502221216 15 229 6.4 9.7 0.00 0.00 0.00 30 1012.3
20260502220712 15 291 9.7 24.1 0.00 0.00 0.00 29 1012.2
20260502220204 15 258 3.2 6.4 0.00 0.00 0.00 32 1012.2
20260502215701 15 278 9.7 14.5 0.00 0.00 0.00 30 1012.4
20260502215157 15 298 11.3 14.5 0.00 0.00 0.00 30 1012.3
20260502214655 13 265 6.4 12.9 0.00 0.00 0.00 32 1012.5
20260502214152 14 277 4.8 6.4 0.00 0.00 0.00 30 1012.4
20260502213649 15 278 8.0 12.9 0.00 0.00 0.00 29 1012.5
20260502213146 15 288 3.2 9.7 0.00 0.00 0.00 31 1012.5
20260502212645 15 233 6.4 11.3 0.00 0.00 0.00 30 1012.5
20260502212143 15 296 1.6 9.7 0.00 0.00 0.00 31 1012.6
20260502211638 15 232 4.8 9.7 0.00 0.00 0.00 32 1012.6
20260502211135 15 237 8.0 11.3 0.00 0.00 0.00 29 1012.7
20260502210633 15 310 12.9 17.7 0.00 0.00 0.00 29 1012.7
20260502210130 15 308 3.2 9.7 0.00 0.00 0.00 30 1012.9
20260502205626 15 351 6.4 12.9 0.00 0.00 0.00 30 1012.8
20260502205123 15 243 3.2 9.7 0.00 0.00 0.00 31 1013.2
20260502204620 15 202 1.6 9.7 0.00 0.00 0.00 34 1013.2
20260502204117 15 272 8.0 16.1 0.00 0.00 0.00 31 1013.2
20260502203614 15 326 8.0 17.7 0.00 0.00 0.00 29 1013.2
20260502203106 15 264 8.0 14.5 0.00 0.00 0.00 29 1013.3
20260502202601 15 116 1.6 4.8 0.00 0.00 0.00 28 1013.3
20260502202100 15 245 6.4 6.4 0.00 0.00 0.00 32 1013.5
20260502201555 14 188 9.7 12.9 0.00 0.00 0.00 30 1013.5
20260502201052 15 220 6.4 12.9 0.00 0.00 0.00 31 1013.4